CW5019 Weather Reports


Display with metric or nautical units.
time (UTC)temp
F
wind
direction
speed
MPH
gust
MPH
rain 1hr
in
rain 24hr
in
rain mn
in
humidity
%
barometer
mb
20260505000223 77 332 0.0 0.0 0.00 0.00 0.00 69 1008.9
20260504235719 77 11 0.0 0.0 0.00 0.00 0.00 69 1009.1
20260504235215 78 336 1.0 2.0 0.00 0.00 0.00 68 1009.1
20260504234713 78 0 0.0 0.0 0.00 0.00 0.00 68 1009.1
20260504234210 78 80 0.0 1.0 0.00 0.00 0.00 68 1009.3
20260504233706 78 356 0.0 2.0 0.00 0.00 0.00 67 1009.2
20260504233202 78 344 0.0 0.0 0.00 0.00 0.00 66 1009.0
20260504232700 78 26 1.0 3.0 0.00 0.00 0.00 66 1009.1
20260504232156 79 343 0.0 0.0 0.00 0.00 0.00 66 1009.3
20260504231653 79 0 0.0 0.0 0.00 0.00 0.00 65 1009.1
20260504231149 79 27 0.0 0.0 0.00 0.00 0.00 65 1009.4
20260504230646 80 354 0.0 0.0 0.00 0.00 0.00 64 1009.5
20260504230145 80 324 1.0 2.0 0.00 0.00 0.00 64 1009.4
20260504225643 80 339 0.0 0.0 0.00 0.00 0.00 63 1009.7
20260504225138 80 4 0.0 0.0 0.00 0.00 0.00 63 1009.6
20260504224635 80 342 0.0 0.0 0.00 0.00 0.00 62 1009.5
20260504224132 80 339 0.0 0.0 0.00 0.00 0.00 62 1009.6
20260504223629 80 117 0.0 0.0 0.00 0.00 0.00 62 1009.7
20260504223125 80 337 0.0 0.0 0.00 0.00 0.00 62 1009.7
20260504222622 80 9 0.0 0.0 0.00 0.00 0.00 61 1009.8
20260504222119 80 4 0.0 1.0 0.00 0.00 0.00 62 1009.7
20260504221616 80 37 0.0 1.0 0.00 0.00 0.00 61 1010.0
20260504221113 80 356 0.0 1.0 0.00 0.00 0.00 62 1009.8
20260504220610 80 26 0.0 0.0 0.00 0.00 0.00 62 1010.0
20260504220108 80 1 0.0 0.0 0.00 0.00 0.00 61 1009.8
20260504215603 80 349 0.0 1.0 0.00 0.00 0.00 60 1009.8
20260504215101 81 349 0.0 0.0 0.00 0.00 0.00 60 1010.1
20260504214557 81 76 1.0 2.0 0.00 0.00 0.00 60 1009.9
20260504214053 82 3 0.0 0.0 0.00 0.00 0.00 59 1010.5
20260504213549 82 343 0.0 0.0 0.00 0.00 0.00 58 1010.2
20260504213047 81 339 0.0 0.0 0.00 0.00 0.00 60 1010.3
20260504212542 82 350 0.0 0.0 0.00 0.00 0.00 57 1010.5
20260504212040 82 176 0.0 0.0 0.00 0.00 0.00 58 1010.4
20260504211537 81 79 0.0 0.0 0.00 0.00 0.00 59 1010.5
20260504211034 81 89 0.0 0.0 0.00 0.00 0.00 60 1010.6
20260504210531 81 43 0.0 0.0 0.00 0.00 0.00 59 1010.7
20260504210027 81 339 0.0 0.0 0.00 0.00 0.00 59 1010.6
20260504205526 81 66 0.0 0.0 0.00 0.00 0.00 59 1010.7
20260504205023 82 353 0.0 0.0 0.00 0.00 0.00 58 1010.8
20260504204521 83 24 0.0 0.0 0.00 0.00 0.00 58 1010.9
20260504204020 82 351 0.0 0.0 0.00 0.00 0.00 57 1011.1
20260504203518 81 9 0.0 0.0 0.00 0.00 0.00 59 1011.0
20260504203015 82 356 0.0 0.0 0.00 0.00 0.00 57 1011.0
20260504202510 82 359 0.0 0.0 0.00 0.00 0.00 58 1011.3
20260504202007 82 356 0.0 0.0 0.00 0.00 0.00 59 1011.2
20260504201504 81 21 0.0 0.0 0.00 0.00 0.00 60 1011.4
20260504201002 80 95 0.0 0.0 0.00 0.00 0.00 60 1011.7
20260504200458 80 146 0.0 0.0 0.00 0.00 0.00 60 1011.6
20260504195955 81 43 0.0 0.0 0.00 0.00 0.00 59 1011.8
20260504195450 81 317 0.0 0.0 0.00 0.00 0.00 58 1011.8
20260504194947 80 6 0.0 0.0 0.00 0.00 0.00 60 1012.0
20260504194443 82 339 0.0 0.0 0.00 0.00 0.00 57 1012.1
20260504193939 82 45 0.0 0.0 0.00 0.00 0.00 58 1012.0
20260504193437 81 133 0.0 0.0 0.00 0.00 0.00 59 1012.5
20260504192936 80 6 0.0 0.0 0.00 0.00 0.00 59 1012.2
20260504192432 80 5 0.0 0.0 0.00 0.00 0.00 59 1012.3
20260504191931 81 51 0.0 0.0 0.00 0.00 0.00 58 1012.5
20260504191430 81 87 0.0 0.0 0.00 0.00 0.00 56 1012.2
20260504190929 82 345 0.0 0.0 0.00 0.00 0.00 56 1012.5
20260504190425 82 345 0.0 0.0 0.00 0.00 0.00 56 1012.8
20260504185922 82 124 0.0 1.0 0.00 0.00 0.00 56 1012.6
20260504185420 82 152 0.0 0.0 0.00 0.00 0.00 57 1013.0
20260504184915 81 115 0.0 0.0 0.00 0.00 0.00 56 1012.9
20260504184411 81 141 0.0 1.0 0.00 0.00 0.00 56 1012.9
20260504183908 80 343 0.0 2.0 0.00 0.00 0.00 58 1012.8
20260504183405 79 339 0.0 0.0 0.00 0.00 0.00 59 1012.8
20260504182903 79 340 0.0 0.0 0.00 0.00 0.00 59 1012.9
20260504182359 79 356 0.0 0.0 0.00 0.00 0.00 60 1013.1
20260504181856 79 162 0.0 0.0 0.00 0.00 0.00 61 1013.1
20260504181354 80 344 0.0 0.0 0.00 0.00 0.00 60 1013.2
20260504180852 80 342 1.0 1.0 0.00 0.00 0.00 59 1013.3
20260504180350 80 309 1.0 2.0 0.00 0.00 0.00 58 1013.2
20260504175848 80 169 0.0 0.0 0.00 0.00 0.00 59 1013.5
20260504175345 79 332 0.0 0.0 0.00 0.00 0.00 58 1013.5
20260504174843 79 170 0.0 2.0 0.00 0.00 0.00 60 1013.4
20260504174340 79 342 0.0 1.0 0.00 0.00 0.00 59 1013.6
20260504173837 78 7 0.0 0.0 0.00 0.00 0.00 59 1013.6
20260504173334 77 1 0.0 0.0 0.00 0.00 0.00 59 1013.7
20260504172831 77 165 1.0 1.0 0.00 0.00 0.00 61 1013.8
20260504172327 77 327 0.0 0.0 0.00 0.00 0.00 60 1013.8
20260504171823 77 321 0.0 1.0 0.00 0.00 0.00 61 1013.8
20260504171321 77 328 0.0 0.0 0.00 0.00 0.00 62 1014.1
20260504170818 77 14 0.0 0.0 0.00 0.00 0.00 63 1014.0
20260504170315 77 349 0.0 0.0 0.00 0.00 0.00 64 1014.0
20260504160233 74 6 0.0 0.0 0.00 0.00 0.00 66 1014.9
20260504150658 71 357 0.0 0.0 0.00 0.00 0.00 70 1015.0
20260504150155 72 339 0.0 0.0 0.00 0.00 0.00 69 1014.9
20260504141124 67 69 0.0 0.0 0.00 0.00 0.00 73 1015.1
20260504140621 67 343 0.0 0.0 0.00 0.00 0.00 75 1014.9
20260504140117 66 4 0.0 0.0 0.00 0.00 0.00 76 1014.8
20260504130545 59 2 0.0 0.0 0.00 0.00 0.00 91 1014.9
20260504110432 56 2 0.0 0.0 0.00 0.00 0.00 93 1014.5
20260504100349 56 2 0.0 0.0 0.00 0.00 0.00 91 1014.7
20260504081742 58 2 0.0 0.0 0.00 0.00 0.00 88 1015.4
20260504081239 58 2 0.0 0.0 0.00 0.00 0.00 88 1015.2
20260504080735 58 2 0.0 0.0 0.00 0.00 0.00 87 1015.4
20260504080232 58 2 0.0 0.0 0.00 0.00 0.00 87 1015.4
20260504070159 60 2 0.0 0.0 0.00 0.00 0.00 84 1016.4
20260504060120 60 2 0.0 0.0 0.00 0.00 0.00 81 1017.0
20260504050548 62 2 0.0 0.0 0.00 0.00 0.00 76 1017.1
20260504045541 63 2 0.0 0.0 0.00 0.00 0.00 74 1017.3
20260504045037 63 2 0.0 0.0 0.00 0.00 0.00 72 1017.2
20260504044534 64 2 0.0 0.0 0.00 0.00 0.00 72 1017.2
20260504044031 64 2 0.0 0.0 0.00 0.00 0.00 70 1017.3
20260504043528 64 2 0.0 0.0 0.00 0.00 0.00 69 1017.6
20260504043026 65 2 0.0 0.0 0.00 0.00 0.00 67 1017.4
20260504042522 65 2 0.0 0.0 0.00 0.00 0.00 68 1017.4
20260504042019 65 2 0.0 0.0 0.00 0.00 0.00 67 1017.6
20260504041515 64 2 0.0 0.0 0.00 0.00 0.00 68 1017.2
20260504041011 64 2 0.0 0.0 0.00 0.00 0.00 67 1017.4
20260504040509 64 2 0.0 0.0 0.00 0.00 0.00 66 1017.3
20260504040005 65 2 0.0 0.0 0.00 0.00 0.00 67 1017.5
20260504035503 66 2 0.0 0.0 0.00 0.00 0.00 65 1017.3
20260504034959 66 2 0.0 0.0 0.00 0.00 0.00 63 1017.2
20260504034456 67 2 0.0 0.0 0.00 0.00 0.00 62 1017.3
20260504033953 67 2 0.0 0.0 0.00 0.00 0.00 62 1017.3
20260504033451 67 2 0.0 0.0 0.00 0.00 0.00 61 1017.4
20260504032948 67 70 0.0 0.0 0.00 0.00 0.00 60 1017.3
20260504032445 67 354 0.0 0.0 0.00 0.00 0.00 60 1017.5
20260504031942 68 354 0.0 0.0 0.00 0.00 0.00 60 1017.3
20260504031439 68 337 0.0 0.0 0.00 0.00 0.00 59 1017.3
20260504030936 68 351 0.0 0.0 0.00 0.00 0.00 60 1017.2
20260504030432 68 23 0.0 0.0 0.00 0.00 0.00 59 1017.2
20260504025928 67 6 0.0 0.0 0.00 0.00 0.00 60 1017.4
20260504025425 67 8 0.0 0.0 0.00 0.00 0.00 61 1017.2
20260504024922 67 4 0.0 0.0 0.00 0.00 0.00 61 1017.0
20260504024419 67 4 0.0 0.0 0.00 0.00 0.00 60 1017.1
20260504023916 67 4 0.0 0.0 0.00 0.00 0.00 61 1017.0
20260504023413 67 4 0.0 0.0 0.00 0.00 0.00 61 1016.9
20260504022908 68 4 0.0 0.0 0.00 0.00 0.00 62 1017.0
20260504022405 68 4 0.0 0.0 0.00 0.00 0.00 61 1017.1
20260504021901 68 4 0.0 0.0 0.00 0.00 0.00 59 1017.0
20260504021359 68 4 0.0 0.0 0.00 0.00 0.00 58 1016.8
20260504020856 68 4 0.0 0.0 0.00 0.00 0.00 59 1016.8
20260504020353 69 4 0.0 0.0 0.00 0.00 0.00 58 1016.8
20260504015849 69 4 0.0 0.0 0.00 0.00 0.00 57 1016.7
20260504015345 69 4 0.0 0.0 0.00 0.00 0.00 57 1016.8
20260504014841 69 4 0.0 0.0 0.00 0.00 0.00 57 1016.7
20260504014337 69 4 0.0 0.0 0.00 0.00 0.00 56 1016.6
20260504013835 70 4 0.0 0.0 0.00 0.00 0.00 56 1016.5
20260504013333 70 4 0.0 0.0 0.00 0.00 0.00 56 1016.6
20260504012829 70 4 0.0 0.0 0.00 0.00 0.00 55 1016.6
20260504012327 70 4 0.0 0.0 0.00 0.00 0.00 54 1016.6
20260504011824 70 4 0.0 0.0 0.00 0.00 0.00 55 1016.5
20260504011321 71 4 0.0 0.0 0.00 0.00 0.00 55 1016.4
20260504010817 71 4 0.0 0.0 0.00 0.00 0.00 53 1016.4
20260504010313 71 4 0.0 0.0 0.00 0.00 0.00 52 1016.2
20260504005809 72 4 0.0 0.0 0.00 0.00 0.00 51 1016.3
20260504005306 72 4 0.0 0.0 0.00 0.00 0.00 51 1016.3
20260504004804 73 4 0.0 0.0 0.00 0.00 0.00 49 1016.4
20260504004301 73 352 0.0 0.0 0.00 0.00 0.00 50 1016.3
20260504003757 73 354 0.0 0.0 0.00 0.00 0.00 48 1016.5
20260504003254 74 344 0.0 0.0 0.00 0.00 0.00 48 1016.3
20260504002751 74 2 0.0 0.0 0.00 0.00 0.00 48 1016.4
20260504002248 75 2 0.0 0.0 0.00 0.00 0.00 47 1016.4
20260504001746 75 355 0.0 0.0 0.00 0.00 0.00 47 1016.4
20260504001243 76 352 0.0 0.0 0.00 0.00 0.00 46 1016.3
20260504000739 76 351 0.0 0.0 0.00 0.00 0.00 46 1016.6